Defiance, OH

12:20 PM EST on November 17, 2019 (GMT -0500)
Defiance Memorial

Weather History for KDFI - September, 2019

Change the Weather History Date:

Saturday, September 28, 2019

  Actual Average Record
Temperature  
Mean Temperature 71 °F -  
Max Temperature 78 °F 70 °F 89 °F (1973)
Min Temperature 64 °F 45 °F 29 °F (1942)
Cooling Degree Days 6    
Growing Degree Days 21 (Base 50)    
Moisture  
Dew Point 63 °F    
Average Humidity 82    
Maximum Humidity 93    
Minimum Humidity 62    
Precipitation  
Precipitation 0.48 in - - ()
Sea Level Pressure  
Sea Level Pressure 30.06 in    
Wind  
Wind Speed 8 mph (NW)    
Max Wind Speed 14 mph    
Max Gust Speed 22 mph    
Visibility 9 miles    
Events Rain , Thunderstorm    
Averages and records for this station are not official NWS values.
T = Trace of Precipitation, MM = Missing Value Source: NWS Daily Summary

Daily Weather History Graph

Daily Weather History Graph

Search for Another Location

Airport or City:

Astronomy

Sep. 28, 2019 Rise Set
Actual Time 7:31 AM EDT 7:25 PM EDT
Civil Twilight 7:03 AM EDT 7:52 PM EDT
Nautical Twilight 6:31 AM EDT 8:24 PM EDT
Astronomical Twilight 5:58 AM EDT 8:57 PM EDT
Moon 7:05 AM EDT (9/28) 7:50 PM EDT (9/28)
Length of Visible Light 12h 48m
Length of Day
11h 53m
Waning Crescent, 0% of the Moon is Illuminated
Sep 28
Waning Crescent
Sep 28
New
Oct 5
First Quarter
Oct 13
Full
Oct 21
Last Quarter

Hourly Weather History & Observations

Time (EDT) Temp. Dew Point Humidity Pressure Visibility Wind Dir Wind Speed Gust Speed Precip Events Conditions
12:53 AM 68.0 °F 62.1 °F 81% 29.89 in 10.0 mi NW 13.8 mph - N/A   Overcast
1:42 AM 66.9 °F 63.0 °F 87% 29.95 in 3.0 mi West 8.1 mph 21.9 mph 0.21 in Rain , Thunderstorm Heavy Rain
1:53 AM 66.0 °F 63.0 °F 90% 29.94 in 4.0 mi West 5.8 mph 16.1 mph 0.26 in Rain , Thunderstorm Rain
2:06 AM 66.0 °F 63.0 °F 90% 29.96 in 2.5 mi Variable 6.9 mph - 0.10 in Rain , Thunderstorm Heavy Thunderstorms and Rain
2:20 AM 66.0 °F 63.0 °F 90% 29.95 in 4.0 mi Variable 5.8 mph - 0.15 in Rain , Thunderstorm Thunderstorms and Rain
2:27 AM 66.0 °F 63.0 °F 90% 29.95 in 5.0 mi WSW 5.8 mph - 0.17 in Rain Rain
2:53 AM 66.0 °F 63.0 °F 90% 29.93 in 10.0 mi SW 5.8 mph - 0.18 in Rain Light Rain
3:53 AM 64.9 °F 63.0 °F 93% 29.91 in 10.0 mi SSW 6.9 mph - 0.03 in   Overcast
4:53 AM 64.9 °F 63.0 °F 93% 29.94 in 10.0 mi SW 5.8 mph - 0.00 in Rain Light Rain
5:53 AM 64.9 °F 63.0 °F 93% 29.91 in 10.0 mi South 8.1 mph - 0.01 in   Clear
6:53 AM 64.9 °F 62.1 °F 90% 29.89 in 10.0 mi South 9.2 mph - N/A   Clear
7:53 AM 64.9 °F 62.1 °F 90% 30.00 in 10.0 mi SW 4.6 mph - N/A   Partly Cloudy
8:53 AM 66.0 °F 63.0 °F 90% 30.02 in 10.0 mi West 3.5 mph - N/A   Mostly Cloudy
9:53 AM 66.9 °F 63.0 °F 87% 30.02 in 10.0 mi SW 3.5 mph - N/A   Clear
10:53 AM 69.1 °F 64.9 °F 87% 30.00 in 10.0 mi South 4.6 mph - N/A   Clear
11:53 AM 73.0 °F 66.0 °F 79% 30.03 in 10.0 mi West 5.8 mph - N/A   Scattered Clouds
12:44 PM 71.1 °F 64.9 °F 81% 30.06 in 10.0 mi NW 4.6 mph - N/A   Mostly Cloudy
12:53 PM 71.1 °F 64.9 °F 81% 30.05 in 10.0 mi Variable 3.5 mph - N/A   Mostly Cloudy
1:25 PM 72.0 °F 64.0 °F 76% 30.08 in 10.0 mi WNW 4.6 mph - N/A   Mostly Cloudy
1:53 PM 73.0 °F 64.0 °F 73% 30.08 in 10.0 mi Variable 5.8 mph - N/A   Mostly Cloudy
2:17 PM 73.0 °F 64.0 °F 73% 30.09 in 10.0 mi NW 8.1 mph - N/A   Mostly Cloudy
2:29 PM 73.9 °F 64.9 °F 73% 30.10 in 10.0 mi WNW 6.9 mph - N/A   Overcast
2:53 PM 73.9 °F 64.0 °F 71% 30.09 in 10.0 mi WNW 4.6 mph - N/A   Overcast
3:53 PM 75.0 °F 64.0 °F 69% 30.10 in 10.0 mi Variable 4.6 mph - N/A   Scattered Clouds
4:53 PM 78.1 °F 64.0 °F 62% 30.10 in 10.0 mi NW 5.8 mph - N/A   Clear
5:45 PM 75.0 °F 66.0 °F 73% 30.12 in 10.0 mi NNE 10.4 mph - N/A   Mostly Cloudy
5:53 PM 73.0 °F 64.9 °F 76% 30.12 in 10.0 mi NNE 10.4 mph - N/A   Mostly Cloudy
6:53 PM 69.1 °F 63.0 °F 81% 30.15 in 10.0 mi North 11.5 mph - N/A   Overcast
7:09 PM 66.9 °F 62.1 °F 84% 30.16 in 10.0 mi North 9.2 mph - N/A   Scattered Clouds
7:53 PM 66.0 °F 61.0 °F 84% 30.16 in 10.0 mi NNE 11.5 mph - N/A   Partly Cloudy
8:11 PM 66.0 °F 60.1 °F 81% 30.17 in 10.0 mi NE 9.2 mph - N/A   Mostly Cloudy
8:53 PM 64.9 °F 59.0 °F 81% 30.18 in 10.0 mi NE 10.4 mph 19.6 mph N/A   Overcast
9:53 PM 64.9 °F 60.1 °F 84% 30.20 in 10.0 mi ENE 6.9 mph - N/A   Overcast
10:53 PM 64.9 °F 59.0 °F 81% 30.22 in 10.0 mi NE 6.9 mph - N/A   Overcast
11:24 PM 64.9 °F 59.0 °F 81% 30.24 in 10.0 mi ENE 5.8 mph - N/A   Overcast
11:43 PM 64.9 °F 59.0 °F 81% 30.24 in 10.0 mi NE 6.9 mph - N/A   Overcast